"Pseudo-MPEC" for P21kRh3

Created 2021 Sep 18 22:07:14 UT using Find_Orb

Click here for an explanation of pseudo-MPECs

 
 Astrometry: 
     P21kRh3  C2021 09 109#(sRyONAstrometry2vOejI5xHSKK'yyo$R/V7^6+ar$9LSA^)qF52
     P21kRh3  C2021 09 10Itt_LBlxGNQGCUSredacted;,eEkUPRN.Fg8y8s2!.GxVu)Wr8d%F52
     P21kRh3  C2021 09 10W/J39V;;D-q6Ik#$E1Lwg!xtcSOLWbclick@3WB6r:ZZ1J)hereVF52
     P21kRh3  C2021 09 10M.!_4xi$for%cvBpnMhexplanation4aF0QrJe,\56lcxnH2l(!KF52

Station data:
(F52) Pan-STARRS 2, Haleakala  (N20.707384 W156.255910)  US/Hawaii. 1.8-m
   Ritchey-Chrétien + CCD.

Orbital elements:  P21kRh3
   Perihelion 2022 Feb 7.486901 +/- 82.4932 TT = 11:41:08 (JD 2459617.986901)
Epoch 2021 Sep 11.0 TT = JDT 2459468.5   Earth MOID: 0.0014   AutoNEOCP
M 199.06506069 +/- 118.73385        (J2000 ecliptic)
n   1.07658221 +/- 0.715717         Peri.  152.77052 +/- 94.710245
a   0.94283981 +/- 0.417861         Node   359.27633 +/- 32.277810
e   0.0720318 +/- 0.241302          Incl.    1.85160 +/- 31.243372
P   0.92/334.39d           H 29.1   G  0.15   U 12.5  SR
q 0.87492530 +/- 0.349464    Q 1.01075433 +/- 39.8384
From 4 observations 2021 Sept. 10 (22.2 min); mean residual 0".12
Residuals in arcseconds: 
210910 F52  .09+  .07+    210910 F52  .15-  .14+    
210910 F52  .06-  .17-    210910 F52  .12+  .03-    

Ephemerides (geocentric):
Date (UTC) HH   RA              Dec         delta   r     elong  mag " sig PA
---- -- -- --  -------------   -----------  ------ ------ -----  --- ---- ---
2021 09 18 22  06 32 14.531   -02 56 40.73  505687 1.0039  78.3 20.5  70d 175
2021 09 18 23  06 33 34.468   -02 44 39.04  500435 1.0039  78.0 20.5  70d 176
2021 09 19 00  06 34 56.084   -02 32 21.64  495185 1.0039  77.7 20.5  70d 176
2021 09 19 01  06 36 19.436   -02 19 48.06  489938 1.0039  77.4 20.4  71d 174
2021 09 19 02  06 37 44.580   -02 06 57.80  484694 1.0039  77.0 20.4  71d 174
2021 09 19 03  06 39 11.574   -01 53 50.36  479455 1.0038  76.7 20.4  71d 174
2021 09 19 04  06 40 40.481   -01 40 25.19  474219 1.0038  76.4 20.4  71d 174
2021 09 19 05  06 42 11.365   -01 26 41.75  468989 1.0038  76.0 20.4  72d 173
2021 09 19 06  06 43 44.293   -01 12 39.46  463763 1.0038  75.6 20.4  72d 172
2021 09 19 07  06 45 19.335   -00 58 17.73  458542 1.0038  75.3 20.4  72d 172
2021 09 19 08  06 46 56.567   -00 43 35.95  453328 1.0037  74.9 20.4  72d 172
2021 09 19 09  06 48 36.063   -00 28 33.48  448120 1.0037  74.5 20.4  72d 172
2021 09 19 10  06 50 17.905   -00 13 09.67  442919 1.0037  74.1 20.4  72d 172
2021 09 19 11  06 52 02.176   +00 02 36.17  437726 1.0037  73.7 20.4  72d 172
2021 09 19 12  06 53 48.966   +00 18 44.73  432541 1.0036  73.3 20.4  72d 172
2021 09 19 13  06 55 38.366   +00 35 16.75  427364 1.0036  72.9 20.4  72d 172
2021 09 19 14  06 57 30.474   +00 52 12.97  422197 1.0036  72.4 20.4  72d 172
2021 09 19 15  06 59 25.390   +01 09 34.16  417041 1.0036  72.0 20.4  72d 172
2021 09 19 16  07 01 23.221   +01 27 21.14  411895 1.0036  71.5 20.4  72d 172
2021 09 19 17  07 03 24.078   +01 45 34.71  406761 1.0035  71.1 20.4  72d 172
2021 09 19 18  07 05 28.079   +02 04 15.74  401640 1.0035  70.6 20.4  73d 173
2021 09 19 19  07 07 35.346   +02 23 25.08  396533 1.0035  70.1 20.4  73d 173
2021 09 19 20  07 09 46.008   +02 43 03.65  391440 1.0035  69.6 20.4  73d 173
2021 09 19 21  07 12 00.202   +03 03 12.35  386362 1.0034  69.1 20.4  73d 173
2021 09 19 22  07 14 18.068   +03 23 52.13  381302 1.0034  68.5 20.4  73d 173
2021 09 19 23  07 16 39.757   +03 45 03.96  376259 1.0034  68.0 20.4  73d 171
2021 09 20 00  07 19 05.425   +04 06 48.81  371235 1.0034  67.4 20.4  73d 171
2021 09 20 01  07 21 35.239   +04 29 07.68  366232 1.0034  66.8 20.4  73d 171
2021 09 20 02  07 24 09.371   +04 52 01.60  361250 1.0033  66.2 20.4  73d 172
2021 09 20 03  07 26 48.005   +05 15 31.58  356291 1.0033  65.6 20.4  73d 172
2021 09 20 04  07 29 31.332   +05 39 38.66  351358 1.0033  65.0 20.4  73d 172
2021 09 20 05  07 32 19.555   +06 04 23.88  346451 1.0033  64.3 20.5  73d 172
2021 09 20 06  07 35 12.887   +06 29 48.27  341572 1.0032  63.7 20.5  73d 172
2021 09 20 07  07 38 11.550   +06 55 52.86  336723 1.0032  63.0 20.5  73d 172
2021 09 20 08  07 41 15.781   +07 22 38.66  331906 1.0032  62.3 20.5  73d 172
2021 09 20 09  07 44 25.827   +07 50 06.66  327124 1.0032  61.6 20.5  73d 172
2021 09 20 10  07 47 41.948   +08 18 17.79  322378 1.0032  60.8 20.6  73d 172
2021 09 20 11  07 51 04.416   +08 47 12.97  317671 1.0031  60.1 20.6  73d 172
2021 09 20 12  07 54 33.519   +09 16 53.03  313006 1.0031  59.3 20??  73d 172
2021 09 20 13  07 58 09.558   +09 47 18.73  308384 1.0031  58.5 20??  73d 172
2021 09 20 14  08 01 52.848   +10 18 30.74  303809 1.0031  57.7 20??  73d 172
2021 09 20 15  08 05 43.720   +10 50 29.60  299285 1.0031  56.8 20??  73d 172
2021 09 20 16  08 09 42.520   +11 23 15.72  294813 1.0030  55.9 20??  73d 172
2021 09 20 17  08 13 49.610   +11 56 49.34  290398 1.0030  55.0 20??  73d 172
2021 09 20 18  08 18 05.365   +12 31 10.50  286043 1.0030  54.1 20??  74d 171
2021 09 20 19  08 22 30.179   +13 06 19.00  281752 1.0030  53.2 20??  73d 171
2021 09 20 20  08 27 04.459   +13 42 14.38  277529 1.0030  52.2 20??  73d 171
2021 09 20 21  08 31 48.626   +14 18 55.89  273378 1.0029  51.3 21??  73d 171